Overview Statistics Trail Chart Weather Telemetry Raw packets
 

This is the latest recevied weather packets stored in our database for station/object IW2NTF-3. If no packets are shown the sender has not sent any weather packets the latest 10 day(s).

<< 15 16 17 18 19 20 21 >>
Time Temp. Humidity Pressure Rain* Wind** Luminosity Snow
1788690364 29.44° C 59% 1022.5 hPa 0 mm - 710 W/m² -
1788690303 29.44° C 59% 1022.5 hPa 0 mm - 714 W/m² -
1788690243 28.89° C 59% 1022.5 hPa 0 mm - 715 W/m² -
1788690184 28.89° C 59% 1022.5 hPa 0 mm - 712 W/m² -
1788690123 29.44° C 58% 1022.5 hPa 0 mm - 708 W/m² -
1788690064 29.44° C 58% 1022.5 hPa 0 mm - 705 W/m² -
1788690004 29.44° C 58% 1022.5 hPa 0 mm - 705 W/m² -
1788689943 29.44° C 58% 1022.6 hPa 0 mm - 703 W/m² -
1788689883 29.44° C 58% 1022.6 hPa 0 mm - 705 W/m² -
1788689823 29.44° C 58% 1022.6 hPa 0 mm - 705 W/m² -
1788689764 29.44° C 58% 1022.6 hPa 0 mm - 703 W/m² -
1788689703 29.44° C 58% 1022.7 hPa 0 mm - 703 W/m² -
1788689643 29.44° C 58% 1022.7 hPa 0 mm - 703 W/m² -
1788689583 29.44° C 59% 1022.7 hPa 0 mm - 701 W/m² -
1788689523 29.44° C 59% 1022.8 hPa 0 mm - 698 W/m² -
1788689463 29.44° C 60% 1022.8 hPa 0 mm - 700 W/m² -
1788689405 28.89° C 60% 1022.8 hPa 0 mm - 696 W/m² -
1788689343 28.89° C 60% 1022.7 hPa 0 mm - 694 W/m² -
1788689283 28.89° C 59% 1022.7 hPa 0 mm - 693 W/m² -
1788689103 28.89° C 59% 1022.9 hPa 0 mm - 691 W/m² -
1788689043 28.89° C 58% 1022.8 hPa 0 mm - 687 W/m² -
1788688983 29.44° C 58% 1022.8 hPa 0 mm - 687 W/m² -
1788688923 29.44° C 60% 1022.9 hPa 0 mm - 691 W/m² -
1788688863 29.44° C 60% 1022.8 hPa 0 mm - 686 W/m² -
1788688804 28.89° C 60% 1022.8 hPa 0 mm - 687 W/m² -

* Rain latest hour (hover to see other rain measurements)
** Current wind speed in m/s (hover to see current wind gust speed)